Weather History for KSJX - June, 2014

Change the Weather History Date:

Monday, June 9, 2014

  Actual Average Record
Temperature  
Mean Temperature 55 °F -  
Max Temperature 72 °F 67 °F 82 °F (2005)
Min Temperature 38 °F 47 °F 31 °F (1958)
Degree Days  
Heating Degree Days 10    
Growing Degree Days 5 (Base 50)    
Moisture  
Dew Point 44 °F    
Average Humidity 68    
Maximum Humidity 100    
Minimum Humidity 40    
Precipitation  
Precipitation 0.00 in - - ()
Sea Level Pressure  
Sea Level Pressure 30.06 in    
Wind  
Wind Speed 2 mph (ENE)    
Max Wind Speed 10 mph    
Max Gust Speed 16 mph    
Visibility 10 miles    
Events      
Averages and records for this station are not official NWS values.
T = Trace of Precipitation, MM = Missing Value Source: NWS Daily Summary

Daily Weather History Graph

Daily Weather History Graph

Search for Another Location

Airport or City:

Trip Planner

Search our weather history database for the weather conditions in past years. The results will help you decide how hot, cold, wet, or windy it might be!

Date:

Astronomy

Jun. 09, 2014 Rise Set
Actual Time 5:52 AM EDT 9:30 PM EDT
Civil Twilight 5:15 AM EDT 10:08 PM EDT
Nautical Twilight 4:24 AM EDT 10:58 PM EDT
Astronomical Twilight 3:17 AM EDT 12:06 AM EDT
Moon 5:40 PM EDT (6/9) 3:31 AM EDT (6/9)
Length of Visible Light 16h 53m
Length of Day
15h 37m
Waxing Gibbous, 85% of the Moon is Illuminated
Jun 9
Waxing Gibbous
Jun 13
Full
Jun 19
Last Quarter
Jun 27
New
Jul 5
First Quarter

Hourly Weather History & Observations

Time (EDT) Temp. Dew Point Humidity Pressure Visibility Wind Dir Wind Speed Gust Speed Precip Events Conditions
12:15 AM 51.4 °F 37.9 °F 60% 30.09 in 10.0 mi Calm Calm - N/A   Clear
12:35 AM 48.0 °F 37.8 °F 68% 30.09 in 10.0 mi Calm Calm - N/A   Clear
12:54 AM 46.0 °F 38.1 °F 74% 30.09 in 10.0 mi Calm Calm - N/A   Clear
1:15 AM 47.1 °F 38.5 °F 72% 30.09 in 10.0 mi Calm Calm - N/A   Clear
1:35 AM 45.0 °F 37.6 °F 75% 30.09 in 10.0 mi Calm Calm - N/A   Clear
1:55 AM 41.4 °F 37.4 °F 86% 30.09 in 10.0 mi Calm Calm - N/A   Clear
2:15 AM 41.4 °F 37.8 °F 87% 30.09 in 10.0 mi Calm Calm - N/A   Clear
2:35 AM 40.8 °F 37.9 °F 89% 30.09 in 10.0 mi Calm Calm - N/A   Clear
2:55 AM 41.2 °F 38.3 °F 89% 30.09 in 10.0 mi Calm Calm - N/A   Clear
3:15 AM 41.5 °F 38.8 °F 90% 30.08 in 10.0 mi Calm Calm - N/A   Clear
3:35 AM 39.4 °F 37.9 °F 95% 30.08 in 10.0 mi Calm Calm - N/A   Clear
3:55 AM 40.1 °F 39.0 °F 96% 30.08 in 10.0 mi Calm Calm - N/A   Clear
4:15 AM 38.5 °F 37.9 °F 98% 30.08 in 10.0 mi Calm Calm - N/A   Clear
4:35 AM 39.2 °F 39.0 °F 99% 30.07 in 10.0 mi Calm Calm - N/A   Clear
4:55 AM 38.7 °F 38.1 °F 98% 30.07 in 10.0 mi Calm Calm - N/A   Clear
5:15 AM 38.7 °F 38.7 °F 100% 30.07 in 10.0 mi Calm Calm - N/A   Clear
5:35 AM 39.0 °F 39.0 °F 100% 30.07 in 10.0 mi Calm Calm - N/A   Clear
5:55 AM 38.3 °F 38.3 °F 100% 30.07 in 10.0 mi Calm Calm - N/A   Clear
6:16 AM 38.5 °F 38.5 °F 100% 30.07 in 10.0 mi Calm Calm - N/A   Clear
6:35 AM 38.8 °F 38.8 °F 100% 30.07 in 10.0 mi Calm Calm - N/A   Clear
6:55 AM 40.3 °F 40.3 °F 100% 30.07 in 10.0 mi Calm Calm - N/A   Clear
7:15 AM 43.7 °F 43.0 °F 97% 30.08 in 10.0 mi Calm Calm - N/A   Clear
7:35 AM 46.8 °F 44.8 °F 93% 30.08 in 10.0 mi Calm Calm - N/A   Clear
7:55 AM 51.6 °F 46.8 °F 83% 30.08 in 10.0 mi Calm Calm - N/A   Clear
8:15 AM 55.0 °F 45.5 °F 70% 30.08 in 10.0 mi East 5.8 mph - N/A   Clear
8:35 AM 56.5 °F 45.3 °F 66% 30.09 in 10.0 mi ESE 8.1 mph - N/A   Clear
8:55 AM 57.4 °F 44.8 °F 63% 30.10 in 10.0 mi ESE 5.8 mph - N/A   Clear
9:15 AM 58.3 °F 46.4 °F 65% 30.10 in 10.0 mi East 3.5 mph - N/A   Clear
9:35 AM 60.8 °F 45.5 °F 57% 30.10 in 10.0 mi SSE 5.8 mph - N/A   Clear
9:55 AM 63.5 °F 46.0 °F 53% 30.09 in 10.0 mi South 3.5 mph - N/A   Clear
10:15 AM 64.2 °F 48.2 °F 56% 30.09 in 10.0 mi WSW 3.5 mph - N/A   Clear
10:35 AM 64.8 °F 48.7 °F 56% 30.10 in 10.0 mi WNW 3.5 mph - N/A   Clear
11:15 AM 65.5 °F 48.6 °F 54% 30.09 in 10.0 mi WNW 4.6 mph - N/A   Clear
11:35 AM 64.2 °F 47.5 °F 55% 30.09 in 10.0 mi West 4.6 mph - N/A   Clear
11:55 AM 65.1 °F 48.9 °F 56% 30.08 in 10.0 mi Calm Calm - N/A   Clear
12:35 PM 72.1 °F 46.2 °F 40% 30.06 in 10.0 mi SE 9.2 mph - N/A   Clear
12:55 PM 71.2 °F 46.4 °F 41% 30.06 in 10.0 mi ESE 10.4 mph 16.1 mph N/A   Clear
1:15 PM 70.9 °F 47.7 °F 44% 30.06 in 10.0 mi East 9.2 mph - N/A   Clear
1:35 PM 70.7 °F 48.9 °F 46% 30.06 in 10.0 mi ESE 6.9 mph - N/A   Clear
1:55 PM 68.7 °F 48.6 °F 49% 30.07 in 10.0 mi NW 8.1 mph - N/A   Clear
2:15 PM 67.5 °F 49.8 °F 53% 30.06 in 10.0 mi NW 3.5 mph - N/A   Clear
2:35 PM 69.8 °F 49.6 °F 49% 30.04 in 10.0 mi NE 8.1 mph - N/A   Clear
4:15 PM 71.2 °F 48.7 °F 45% 30.04 in 10.0 mi ENE 8.1 mph - N/A   Clear
4:35 PM 71.1 °F 48.4 °F 44% 30.03 in 10.0 mi NNE 5.8 mph - N/A   Clear
4:55 PM 69.8 °F 48.0 °F 46% 30.03 in 10.0 mi NE 8.1 mph - N/A   Clear
5:15 PM 68.7 °F 46.2 °F 44% 30.03 in 10.0 mi NNE 9.2 mph - N/A   Clear
5:35 PM 67.5 °F 45.0 °F 44% 30.03 in 10.0 mi NE 6.9 mph - N/A   Clear
5:55 PM 67.1 °F 46.6 °F 48% 30.03 in 10.0 mi ENE 5.8 mph - N/A   Clear
6:15 PM 66.2 °F 48.2 °F 52% 30.03 in 10.0 mi ENE 5.8 mph - N/A   Clear
6:35 PM 66.6 °F 48.2 °F 52% 30.02 in 10.0 mi NE 8.1 mph - N/A   Clear
6:55 PM 66.2 °F 47.5 °F 51% 30.02 in 10.0 mi ENE 6.9 mph - N/A   Clear
7:15 PM 66.6 °F 45.3 °F 46% 30.01 in 10.0 mi ENE 6.9 mph - N/A   Scattered Clouds
7:35 PM 65.7 °F 43.7 °F 45% 30.01 in 10.0 mi ENE 5.8 mph - N/A   Scattered Clouds
7:54 PM 64.9 °F 44.6 °F 48% 30.00 in 10.0 mi ENE 8.1 mph - N/A   Clear
8:15 PM 65.3 °F 44.4 °F 47% 30.00 in 10.0 mi ENE 5.8 mph - N/A   Clear
8:35 PM 64.4 °F 45.1 °F 50% 30.01 in 10.0 mi ENE 6.9 mph - N/A   Clear
8:55 PM 62.8 °F 46.0 °F 54% 30.01 in 10.0 mi ENE 3.5 mph - N/A   Clear
9:15 PM 60.1 °F 46.8 °F 61% 30.01 in 10.0 mi NE 3.5 mph - N/A   Clear
9:35 PM 59.0 °F 46.4 °F 63% 30.01 in 10.0 mi NE 3.5 mph - N/A   Clear
9:55 PM 57.4 °F 46.6 °F 67% 30.01 in 10.0 mi NE 4.6 mph - N/A   Clear
10:15 PM 56.3 °F 46.6 °F 70% 30.02 in 10.0 mi Calm Calm - N/A   Clear
10:35 PM 54.5 °F 46.4 °F 74% 30.02 in 10.0 mi ENE 3.5 mph - N/A   Clear
10:55 PM 53.2 °F 46.2 °F 77% 30.02 in 10.0 mi East 3.5 mph - N/A   Clear
11:15 PM 53.8 °F 46.9 °F 78% 30.02 in 10.0 mi East 3.5 mph - N/A   Clear
11:35 PM 54.3 °F 46.8 °F 76% 30.01 in 10.0 mi Calm Calm - N/A   Clear
11:55 PM 52.2 °F 46.8 °F 82% 30.01 in 10.0 mi Calm Calm - N/A   Clear